FW4085 Weather Reports


time (UTC)temp
C
wind
direction
speed
KPH
gust
KPH
rain 1hr
cm
rain 24hr
cm
rain mn
cm
humidity
%
barometer
mb
20260504150517 16 252 6.4 14.5 0.00 0.00 0.00 48 856.2
20260504140519 15 245 4.8 17.7 0.00 0.00 0.00 48 856.2
20260504130520 13 221 6.4 14.5 0.00 0.00 0.00 49 855.9
20260504110519 8 76 3.2 6.4 0.00 0.00 0.00 67 855.3
20260504100523 4 14 1.6 3.2 0.00 0.00 0.00 79 854.8
20260504081525 6 200 1.6 3.2 0.00 0.00 0.00 76 854.9
20260504080525 6 107 1.6 1.6 0.00 0.00 0.00 75 855.0
20260504050539 7 257 3.2 4.8 0.00 0.00 0.00 65 855.1
20260504045517 7 248 3.2 6.4 0.00 0.00 0.00 67 855.1
20260504044517 7 251 3.2 4.8 0.00 0.00 0.00 65 855.1
20260504043520 7 272 1.6 3.2 0.00 0.00 0.00 65 855.1
20260504042540 7 248 3.2 4.8 0.00 0.00 0.00 65 855.1
20260504041537 7 249 3.2 4.8 0.00 0.00 0.00 65 855.1
20260504040538 7 248 3.2 4.8 0.00 0.00 0.00 65 855.1
20260504035518 7 255 3.2 6.4 0.00 0.00 0.00 64 855.0
20260504034558 6 256 3.2 6.4 0.00 0.00 0.00 63 855.0
20260504033518 7 249 3.2 6.4 0.00 0.00 0.00 63 855.0
20260504032518 7 281 1.6 4.8 0.00 0.00 0.00 61 855.1
20260504031518 7 254 3.2 6.4 0.00 0.00 0.00 61 855.1
20260504030518 7 247 3.2 6.4 0.00 0.00 0.00 57 855.1
20260504025539 7 241 4.8 9.7 0.00 0.00 0.00 55 855.2
20260504024519 8 226 3.2 8.0 0.00 0.00 0.00 54 855.2
20260504023519 8 228 4.8 8.0 0.00 0.00 0.00 52 855.2
20260504022516 8 242 4.8 8.0 0.00 0.00 0.00 53 855.2
20260504021539 8 240 4.8 9.7 0.00 0.00 0.00 52 855.2
20260504020520 8 239 4.8 11.3 0.00 0.00 0.00 52 855.2
20260504015540 8 243 3.2 9.7 0.00 0.00 0.00 51 855.2
20260504014537 8 254 4.8 9.7 0.00 0.00 0.00 50 855.2
20260504013537 8 232 4.8 9.7 0.00 0.00 0.00 49 855.2
20260504012520 8 243 1.6 6.4 0.00 0.00 0.00 49 855.2
20260504011517 8 246 4.8 8.0 0.00 0.00 0.00 48 855.2
20260504010538 8 254 4.8 14.5 0.00 0.00 0.00 47 855.2
20260504005518 8 231 3.2 6.4 0.00 0.00 0.00 47 855.2
20260504004518 9 246 4.8 9.7 0.00 0.00 0.00 45 855.3
20260504003518 9 252 6.4 12.9 0.00 0.00 0.00 44 855.3
20260504002518 8 249 6.4 16.1 0.00 0.00 0.00 44 855.3
20260504001518 9 236 3.2 9.7 0.00 0.00 0.00 43 855.3
20260504000539 9 256 6.4 14.5 0.00 0.00 0.00 42 855.3
20260503235516 9 253 4.8 12.9 0.00 0.00 0.00 40 855.4
20260503234519 10 248 4.8 12.9 0.00 0.00 0.00 39 855.4
20260503233519 10 262 6.4 11.3 0.00 0.00 0.00 39 855.4
20260503232517 10 245 4.8 11.3 0.00 0.00 0.00 39 855.4
20260503231517 10 256 4.8 11.3 0.00 0.00 0.00 38 855.5
20260503230516 10 251 6.4 16.1 0.00 0.00 0.00 38 855.5
20260503225520 11 261 4.8 11.3 0.00 0.00 0.00 38 855.6
20260503224538 11 268 6.4 14.5 0.00 0.00 0.00 37 855.6
20260503223517 11 267 8.0 14.5 0.00 0.00 0.00 38 855.6
20260503222517 11 254 8.0 20.9 0.00 0.00 0.00 38 855.6
20260503221537 11 284 6.4 14.5 0.00 0.00 0.00 38 855.7
20260503220518 11 271 4.8 12.9 0.00 0.00 0.00 40 855.7
20260503215517 10 288 4.8 16.1 0.00 0.00 0.00 42 855.6
20260503214518 11 283 6.4 9.7 0.00 0.00 0.00 42 855.6
20260503213518 11 279 9.7 17.7 0.00 0.00 0.00 41 855.6
20260503212518 11 268 6.4 16.1 0.00 0.00 0.00 41 855.7
20260503211518 11 261 4.8 14.5 0.00 0.00 0.00 43 855.7
20260503210519 10 284 6.4 16.1 0.00 0.00 0.00 43 855.6
20260503205519 10 278 6.4 19.3 0.00 0.00 0.00 45 855.5
20260503204539 10 276 4.8 11.3 0.00 0.00 0.00 45 855.4
20260503203516 9 280 6.4 17.7 0.00 0.00 0.00 45 855.4
20260503202539 9 262 6.4 12.9 0.00 0.00 0.00 46 855.4
20260503201540 9 274 8.0 17.7 0.00 0.00 0.00 45 855.4
20260503200520 9 266 4.8 11.3 0.00 0.00 0.00 47 855.4
20260503195522 9 269 6.4 11.3 0.00 0.00 0.00 46 855.4
20260503194523 9 276 6.4 14.5 0.00 0.00 0.00 46 855.4
20260503193526 9 262 8.0 12.9 0.00 0.00 0.00 45 855.4
20260503192526 8 297 6.4 17.7 0.00 0.00 0.00 46 855.4
20260503191520 8 288 6.4 17.7 0.00 0.00 0.00 46 855.4
20260503190524 9 302 4.8 17.7 0.00 0.00 0.00 46 855.4
20260503185524 8 333 6.4 19.3 0.00 0.00 0.00 46 855.4
20260503184524 8 301 6.4 14.5 0.00 0.00 0.00 46 855.4
20260503183544 9 282 6.4 19.3 0.00 0.00 0.00 46 855.4
20260503182538 8 268 6.4 16.1 0.00 0.00 0.00 47 855.4
20260503181538 8 304 4.8 14.5 0.00 0.00 0.00 46 855.3
20260503180519 8 307 6.4 16.1 0.00 0.00 0.00 46 855.3
20260503175525 8 267 6.4 16.1 0.00 0.00 0.00 46 855.3
20260503174524 8 311 6.4 14.5 0.00 0.00 0.00 46 855.3
20260503173545 8 289 4.8 12.9 0.00 0.00 0.00 46 855.4
20260503172530 8 255 6.4 12.9 0.00 0.00 0.00 46 855.4
20260503171522 8 282 6.4 11.3 0.00 0.00 0.00 46 855.3
20260503170523 9 269 8.0 17.7 0.00 0.00 0.00 47 855.4